SAS2950 LEZL-ESSA

Flight info

Callsign SAS2950
Flight time N/A
Altitude 36000
Route HIJ DCT PARKA N858 ABRIX DCT CNA DCT ADABI DCT BOKNO UN858 VANAD UN874 PIWIZ DCT VADOM UN874 ARSAF DCT EGOZE DCT CMB DCT VEKIN DCT ADUTO/N0443F370 DCT VICOT DCT GOTEX DCT DETSO N873 ARS T317 ELTOK
Aircraft A319/M-SDE3FGIJ1RWXY/LB1

Departure

Time 2026-05-07 08:00
Airport Seville Airport (LEZL)

Arrival

Time N/A
Airport Stockholm-Arlanda Airport (ESSA)
Time Latitude Longitude Altitude Speed Heading
2026-05-07 07:23 37.42263 -5.89903 98 ft 0 kts 344°
2026-05-07 07:36 37.42262 -5.89903 97 ft 0 kts 344°
2026-05-07 07:53 37.42254 -5.89900 97 ft 3 kts 344°
2026-05-07 07:53 37.42228 -5.89890 98 ft 4 kts 341°
2026-05-07 07:53 37.42203 -5.89878 99 ft 4 kts 337°
2026-05-07 07:54 37.42178 -5.89863 99 ft 4 kts 323°
2026-05-07 07:54 37.42169 -5.89854 99 ft 1 kts 318°
2026-05-07 07:56 37.42170 -5.89855 99 ft 1 kts 318°
2026-05-07 07:56 37.42166 -5.89876 100 ft 6 kts 249°
2026-05-07 07:56 37.42126 -5.89930 101 ft 10 kts 224°
2026-05-07 07:57 37.42067 -5.89989 101 ft 12 kts 220°
2026-05-07 07:57 37.42033 -5.90085 101 ft 12 kts 222°
2026-05-07 07:57 37.41980 -5.90154 104 ft 12 kts 265°
2026-05-07 07:57 37.41980 -5.90268 103 ft 14 kts 269°
2026-05-07 07:58 37.41979 -5.90407 101 ft 16 kts 270°
2026-05-07 07:58 37.41979 -5.90556 99 ft 18 kts 270°
2026-05-07 07:58 37.41978 -5.90725 97 ft 21 kts 269°
2026-05-07 07:58 37.41975 -5.90919 91 ft 24 kts 260°
2026-05-07 07:59 37.41909 -5.91077 90 ft 19 kts 240°
2026-05-07 07:59 37.41832 -5.91192 90 ft 15 kts 186°
2026-05-07 07:59 37.41787 -5.91126 90 ft 6 kts 89°
2026-05-07 07:59 37.41787 -5.91009 92 ft 36 kts 89°
2026-05-07 08:00 37.41790 -5.90453 101 ft 91 kts 89°
2026-05-07 08:00 37.41793 -5.89440 104 ft 142 kts 90°
2026-05-07 08:00 37.41798 -5.88061 395 ft 162 kts 92°
2026-05-07 08:00 37.41778 -5.86635 1024 ft 163 kts 94°
2026-05-07 08:01 37.41744 -5.85200 1634 ft 165 kts 96°
2026-05-07 08:01 37.41703 -5.83711 2080 ft 179 kts 96°
2026-05-07 08:01 37.41677 -5.82061 2399 ft 201 kts 90°
2026-05-07 08:01 37.41951 -5.80189 2636 ft 232 kts 79°
2026-05-07 08:02 37.42353 -5.78108 3101 ft 257 kts 76°
2026-05-07 08:02 37.43285 -5.76129 3833 ft 271 kts 44°
2026-05-07 08:02 37.44885 -5.74917 4801 ft 275 kts 26°
2026-05-07 08:02 37.46639 -5.73891 5711 ft 279 kts 26°
2026-05-07 08:03 37.48406 -5.72852 6587 ft 283 kts 27°
2026-05-07 08:03 37.50199 -5.71770 7416 ft 288 kts 26°
2026-05-07 08:03 37.52018 -5.70661 8249 ft 292 kts 26°
2026-05-07 08:03 37.53863 -5.69533 9078 ft 296 kts 26°
2026-05-07 08:04 37.55736 -5.68389 9884 ft 301 kts 26°
2026-05-07 08:04 37.57637 -5.67230 10332 ft 318 kts 25°
2026-05-07 08:04 37.59703 -5.65976 10593 ft 339 kts 25°
2026-05-07 08:04 37.61863 -5.64666 11168 ft 347 kts 25°
2026-05-07 08:05 37.64058 -5.63338 11864 ft 352 kts 25°
2026-05-07 08:05 37.66279 -5.61995 12566 ft 356 kts 25°
2026-05-07 08:05 37.68526 -5.60631 13260 ft 360 kts 25°
2026-05-07 08:05 37.70799 -5.59249 13914 ft 365 kts 25°
2026-05-07 08:06 37.73081 -5.57861 14526 ft 369 kts 25°
2026-05-07 08:06 37.75408 -5.56442 15142 ft 372 kts 25°
2026-05-07 08:06 37.77759 -5.55008 15765 ft 376 kts 25°
2026-05-07 08:06 37.80128 -5.53562 16377 ft 379 kts 25°
2026-05-07 08:07 37.82519 -5.52104 16982 ft 383 kts 25°
2026-05-07 08:07 37.84932 -5.50634 17603 ft 387 kts 25°
2026-05-07 08:07 37.87374 -5.49148 18211 ft 391 kts 25°
2026-05-07 08:07 37.89802 -5.47666 18738 ft 394 kts 25°
2026-05-07 08:08 37.92289 -5.46144 19248 ft 398 kts 25°
2026-05-07 08:08 37.94790 -5.44610 19796 ft 401 kts 25°
2026-05-07 08:08 37.97325 -5.43052 20331 ft 404 kts 25°
2026-05-07 08:08 37.99874 -5.41483 20864 ft 408 kts 25°
2026-05-07 08:09 38.02437 -5.39904 21372 ft 412 kts 25°
2026-05-07 08:09 38.04998 -5.38327 21885 ft 415 kts 25°
2026-05-07 08:09 38.07611 -5.36719 22390 ft 418 kts 25°
2026-05-07 08:09 38.10248 -5.35098 22884 ft 422 kts 25°
2026-05-07 08:10 38.12902 -5.33466 23375 ft 425 kts 25°
2026-05-07 08:10 38.15588 -5.31811 23788 ft 429 kts 25°
2026-05-07 08:10 38.18286 -5.30146 24193 ft 432 kts 25°
2026-05-07 08:10 38.20959 -5.28495 24592 ft 434 kts 25°
2026-05-07 08:11 38.23690 -5.26806 24985 ft 437 kts 25°
2026-05-07 08:11 38.26441 -5.25106 25381 ft 440 kts 25°
2026-05-07 08:11 38.29210 -5.23394 25762 ft 443 kts 25°
2026-05-07 08:11 38.31988 -5.21677 26143 ft 446 kts 25°
2026-05-07 08:12 38.34757 -5.19962 26513 ft 449 kts 25°
2026-05-07 08:12 38.37575 -5.18214 26881 ft 451 kts 25°
2026-05-07 08:12 38.40410 -5.16457 27245 ft 454 kts 25°
2026-05-07 08:12 38.43268 -5.14682 27613 ft 457 kts 25°
2026-05-07 08:13 38.46139 -5.12905 27970 ft 460 kts 24°
2026-05-07 08:13 38.49148 -5.11481 28323 ft 462 kts 14°
2026-05-07 08:13 38.52304 -5.10657 28674 ft 463 kts
2026-05-07 08:13 38.55523 -5.10469 29000 ft 463 kts 355°
2026-05-07 08:14 38.58746 -5.10780 29339 ft 465 kts 352°
2026-05-07 08:14 38.61985 -5.11124 29679 ft 468 kts 353°
2026-05-07 08:14 38.65204 -5.11454 29990 ft 470 kts 353°
2026-05-07 08:14 38.68478 -5.11780 30256 ft 473 kts 353°
2026-05-07 08:15 38.71784 -5.12107 30544 ft 475 kts 353°
2026-05-07 08:15 38.75089 -5.12436 30828 ft 476 kts 353°
2026-05-07 08:15 38.78408 -5.12771 31116 ft 478 kts 353°
2026-05-07 08:15 38.81686 -5.13104 31403 ft 479 kts 353°
2026-05-07 08:16 38.85015 -5.13446 31795 ft 478 kts 353°
2026-05-07 08:16 38.88328 -5.13791 32199 ft 476 kts 352°
2026-05-07 08:16 38.91633 -5.14134 32597 ft 475 kts 352°
2026-05-07 08:16 38.94930 -5.14384 32989 ft 476 kts 358°
2026-05-07 08:17 38.98235 -5.14021 33366 ft 478 kts
2026-05-07 08:17 39.01464 -5.12951 33749 ft 480 kts 18°
2026-05-07 08:17 39.04511 -5.11194 34079 ft 481 kts 28°
2026-05-07 08:17 39.07357 -5.08905 34390 ft 481 kts 32°
2026-05-07 08:18 39.10130 -5.06604 34702 ft 480 kts 32°
2026-05-07 08:18 39.12945 -5.04279 35025 ft 479 kts 32°
2026-05-07 08:18 39.15750 -5.01966 35340 ft 478 kts 31°
2026-05-07 08:18 39.18548 -4.99656 35645 ft 476 kts 31°
2026-05-07 08:19 39.21340 -4.97346 35858 ft 476 kts 31°
2026-05-07 08:19 39.26893 -4.92735 35898 ft 473 kts 32°
2026-05-07 08:20 39.32440 -4.88121 35899 ft 473 kts 32°
2026-05-07 08:20 39.37952 -4.83518 35907 ft 474 kts 32°
2026-05-07 08:21 39.42557 -4.79674 35906 ft 474 kts 32°
2026-05-07 08:21 39.49013 -4.74264 35909 ft 474 kts 32°
2026-05-07 08:22 39.53655 -4.70367 35909 ft 474 kts 32°
2026-05-07 08:22 39.59178 -4.65729 35899 ft 475 kts 32°
2026-05-07 08:23 39.64696 -4.61082 35901 ft 475 kts 32°
2026-05-07 08:23 39.70242 -4.56400 35907 ft 475 kts 32°
2026-05-07 08:24 39.75798 -4.51701 35904 ft 475 kts 32°
2026-05-07 08:24 39.81311 -4.47034 35906 ft 476 kts 32°
2026-05-07 08:25 39.86873 -4.42325 35923 ft 476 kts 33°
2026-05-07 08:25 39.92404 -4.37622 35912 ft 476 kts 33°
2026-05-07 08:26 40.01042 -4.31245 35920 ft 475 kts 24°
2026-05-07 08:26 40.07045 -4.27597 35926 ft 475 kts 24°
2026-05-07 08:27 40.13036 -4.23940 35916 ft 475 kts 24°
2026-05-07 08:27 40.19002 -4.20291 35931 ft 476 kts 24°
2026-05-07 08:28 40.25017 -4.16602 35938 ft 476 kts 24°
2026-05-07 08:28 40.30983 -4.12938 35944 ft 476 kts 24°
2026-05-07 08:29 40.36983 -4.09260 35955 ft 475 kts 24°
2026-05-07 08:29 40.42982 -4.05568 35961 ft 475 kts 24°
2026-05-07 08:30 40.48921 -4.01893 35960 ft 475 kts 24°
2026-05-07 08:30 40.54933 -3.98169 35957 ft 475 kts 24°
2026-05-07 08:31 40.60871 -3.94480 35968 ft 474 kts 25°
2026-05-07 08:31 40.66852 -3.90758 35981 ft 474 kts 25°
2026-05-07 08:32 40.72818 -3.87045 35978 ft 474 kts 25°
2026-05-07 08:32 40.78765 -3.83341 35971 ft 474 kts 25°
2026-05-07 08:33 40.84744 -3.79604 35973 ft 474 kts 25°
2026-05-07 08:33 40.90666 -3.75894 35968 ft 473 kts 25°
2026-05-07 08:34 40.96637 -3.72147 35966 ft 473 kts 25°
2026-05-07 08:34 41.02551 -3.68433 35968 ft 473 kts 25°
2026-05-07 08:35 41.08507 -3.64689 35964 ft 472 kts 25°
2026-05-07 08:35 41.14460 -3.60930 35964 ft 472 kts 25°
2026-05-07 08:36 41.20428 -3.57406 35962 ft 471 kts 21°
2026-05-07 08:36 41.26534 -3.54166 35956 ft 470 kts 20°
2026-05-07 08:37 41.32582 -3.50982 35958 ft 470 kts 21°
2026-05-07 08:37 41.38671 -3.47678 35956 ft 470 kts 21°
2026-05-07 08:38 41.44663 -3.44363 35954 ft 469 kts 22°
2026-05-07 08:38 41.50718 -3.41018 35956 ft 469 kts 21°
2026-05-07 08:39 41.56756 -3.37689 35950 ft 468 kts 21°
2026-05-07 08:39 41.62745 -3.34376 35939 ft 468 kts 22°
2026-05-07 08:40 41.68780 -3.31038 35941 ft 468 kts 21°
2026-05-07 08:40 41.74785 -3.27717 35945 ft 468 kts 22°
2026-05-07 08:41 41.80819 -3.24369 35947 ft 468 kts 22°
2026-05-07 08:41 41.86819 -3.21029 35946 ft 468 kts 22°
2026-05-07 08:42 41.92851 -3.17658 35949 ft 468 kts 22°
2026-05-07 08:42 41.98849 -3.14294 35951 ft 468 kts 22°
2026-05-07 08:43 42.04885 -3.10918 35954 ft 469 kts 21°
2026-05-07 08:43 42.10872 -3.07570 35956 ft 468 kts 22°
2026-05-07 08:44 42.16894 -3.04182 35958 ft 468 kts 22°
2026-05-07 08:44 42.22890 -3.00796 35961 ft 468 kts 22°
2026-05-07 08:45 42.28905 -2.97393 35964 ft 468 kts 22°
2026-05-07 08:45 42.34939 -2.93974 35967 ft 468 kts 22°
2026-05-07 08:46 42.40912 -2.90583 35967 ft 468 kts 21°
2026-05-07 08:46 42.46856 -2.86933 35971 ft 469 kts 29°
2026-05-07 08:47 42.52566 -2.82605 35972 ft 469 kts 28°
2026-05-07 08:47 42.58239 -2.78330 35980 ft 469 kts 28°
2026-05-07 08:48 42.63971 -2.74005 35984 ft 469 kts 28°
2026-05-07 08:48 42.69684 -2.69675 35988 ft 470 kts 28°
2026-05-07 08:49 42.75362 -2.65353 35994 ft 470 kts 28°
2026-05-07 08:49 42.81082 -2.60991 35992 ft 470 kts 28°
2026-05-07 08:50 42.86795 -2.56629 35998 ft 470 kts 28°
2026-05-07 08:50 42.92493 -2.52272 35999 ft 470 kts 28°
2026-05-07 08:51 42.98202 -2.47894 35998 ft 470 kts 28°
2026-05-07 08:51 43.03881 -2.43533 35996 ft 470 kts 28°
2026-05-07 08:52 43.09587 -2.39139 35989 ft 470 kts 28°
2026-05-07 08:52 43.15291 -2.34736 35985 ft 469 kts 28°
2026-05-07 08:53 43.20989 -2.30334 35979 ft 469 kts 28°
2026-05-07 08:53 43.26651 -2.25942 35984 ft 470 kts 28°
2026-05-07 08:54 43.32350 -2.21513 35993 ft 470 kts 28°
2026-05-07 08:54 43.38035 -2.17089 35994 ft 469 kts 28°
2026-05-07 08:55 43.43692 -2.12684 35997 ft 469 kts 28°
2026-05-07 08:55 43.49385 -2.08237 35996 ft 469 kts 28°
2026-05-07 08:56 43.55034 -2.03812 36000 ft 469 kts 28°
2026-05-07 08:56 43.60692 -1.99372 35997 ft 469 kts 28°
2026-05-07 08:57 43.66362 -1.94898 35997 ft 469 kts 28°
2026-05-07 08:57 43.72008 -1.90430 35996 ft 468 kts 28°
2026-05-07 08:58 43.77644 -1.85978 36000 ft 468 kts 28°
2026-05-07 08:58 43.83313 -1.81500 35998 ft 468 kts 28°
2026-05-07 08:59 43.88976 -1.77005 36001 ft 468 kts 28°
2026-05-07 08:59 43.94604 -1.72513 36000 ft 468 kts 28°
2026-05-07 09:00 44.00262 -1.67999 36005 ft 468 kts 28°
2026-05-07 09:00 44.05881 -1.63510 36007 ft 468 kts 28°
2026-05-07 09:01 44.11527 -1.58998 36002 ft 468 kts 28°
2026-05-07 09:01 44.17173 -1.54461 36004 ft 468 kts 28°
2026-05-07 09:02 44.22812 -1.49919 36030 ft 469 kts 28°
2026-05-07 09:02 44.25613 -1.47659 36186 ft 470 kts 28°
2026-05-07 09:02 44.28453 -1.45363 36421 ft 471 kts 28°
2026-05-07 09:03 44.31287 -1.43070 36686 ft 470 kts 28°
2026-05-07 09:03 44.34124 -1.40773 36959 ft 470 kts 28°
2026-05-07 09:03 44.36957 -1.38478 37228 ft 470 kts 28°
2026-05-07 09:03 44.39759 -1.36208 37492 ft 469 kts 28°
2026-05-07 09:04 44.42588 -1.33919 37751 ft 469 kts 28°
2026-05-07 09:04 44.45413 -1.31631 37972 ft 469 kts 28°
2026-05-07 09:04 44.51056 -1.27042 38031 ft 468 kts 28°
2026-05-07 09:05 44.56656 -1.22457 38028 ft 467 kts 28°
2026-05-07 09:05 44.62284 -1.17848 38030 ft 467 kts 28°
2026-05-07 09:06 44.67855 -1.13297 38028 ft 467 kts 28°
2026-05-07 09:06 44.73489 -1.08676 38028 ft 467 kts 28°
2026-05-07 09:07 44.79062 -1.04082 38028 ft 467 kts 28°
2026-05-07 09:07 44.84679 -0.99448 38031 ft 467 kts 28°
2026-05-07 09:08 44.89353 -0.95588 38036 ft 468 kts 28°
2026-05-07 09:08 44.94968 -0.90926 38038 ft 467 kts 29°
2026-05-07 09:09 45.00546 -0.86290 38036 ft 467 kts 28°
2026-05-07 09:09 45.06173 -0.81616 38039 ft 467 kts 29°
2026-05-07 09:10 45.11781 -0.76934 38044 ft 467 kts 29°
2026-05-07 09:10 45.17346 -0.72274 38045 ft 467 kts 29°
2026-05-07 09:11 45.22954 -0.67576 38046 ft 467 kts 29°
2026-05-07 09:11 45.28547 -0.62885 38050 ft 466 kts 29°
2026-05-07 09:12 45.34105 -0.58203 38046 ft 466 kts 29°
2026-05-07 09:12 45.39694 -0.53494 38046 ft 466 kts 29°
2026-05-07 09:13 45.45229 -0.48813 38044 ft 465 kts 29°
2026-05-07 09:13 45.50799 -0.44081 38049 ft 465 kts 29°
2026-05-07 09:14 45.56380 -0.39332 38049 ft 465 kts 29°
2026-05-07 09:14 45.61911 -0.34624 38051 ft 464 kts 29°
2026-05-07 09:15 45.67460 -0.29866 38050 ft 464 kts 30°
2026-05-07 09:15 45.72884 -0.24949 38052 ft 464 kts 31°
2026-05-07 09:16 45.78284 -0.19879 38045 ft 464 kts 32°
2026-05-07 09:16 45.83691 -0.14833 38047 ft 463 kts 31°
2026-05-07 09:17 45.89123 -0.09821 38043 ft 463 kts 31°
2026-05-07 09:17 45.94514 -0.04848 38044 ft 463 kts 31°
2026-05-07 09:18 45.99928 0.00176 38037 ft 463 kts 31°
2026-05-07 09:18 46.05350 0.05227 38038 ft 463 kts 31°
2026-05-07 09:19 46.10731 0.10247 38040 ft 463 kts 31°
2026-05-07 09:19 46.16146 0.15318 38038 ft 463 kts 31°
2026-05-07 09:20 46.21552 0.20386 38042 ft 463 kts 31°
2026-05-07 09:20 46.26962 0.25462 38047 ft 463 kts 31°
2026-05-07 09:21 46.32344 0.30523 38055 ft 463 kts 31°
2026-05-07 09:21 46.37714 0.35599 38056 ft 463 kts 31°
2026-05-07 09:22 46.43115 0.40709 38064 ft 462 kts 32°
2026-05-07 09:22 46.48502 0.45829 38063 ft 462 kts 32°
2026-05-07 09:23 46.53899 0.50917 38063 ft 461 kts 28°
2026-05-07 09:23 46.59811 0.54304 38059 ft 455 kts 10°
2026-05-07 09:24 46.66008 0.56328 38063 ft 456 kts 10°
2026-05-07 09:24 46.72158 0.58353 38063 ft 456 kts 11°
2026-05-07 09:25 46.78350 0.60400 38059 ft 455 kts 11°
2026-05-07 09:25 46.84532 0.62453 38061 ft 455 kts 11°
2026-05-07 09:26 46.90726 0.64517 38059 ft 455 kts 11°
2026-05-07 09:26 46.96873 0.66564 38059 ft 455 kts 11°
2026-05-07 09:27 47.03052 0.68623 38060 ft 455 kts 10°
2026-05-07 09:28 47.12461 0.69964 38064 ft 452 kts
2026-05-07 09:28 47.18710 0.70624 38065 ft 452 kts
2026-05-07 09:29 47.25003 0.71296 38065 ft 452 kts
2026-05-07 09:29 47.31248 0.71949 38066 ft 452 kts
2026-05-07 09:30 47.37533 0.72603 38066 ft 451 kts
2026-05-07 09:30 47.43774 0.73253 38067 ft 451 kts
2026-05-07 09:31 47.50033 0.74236 38064 ft 453 kts 11°
2026-05-07 09:31 47.56036 0.77048 38062 ft 455 kts 17°
2026-05-07 09:32 47.62051 0.80021 38063 ft 455 kts 17°
2026-05-07 09:32 47.68068 0.82969 38062 ft 455 kts 17°
2026-05-07 09:33 47.74048 0.85911 38070 ft 455 kts 17°
2026-05-07 09:33 47.80054 0.88892 38071 ft 455 kts 17°
2026-05-07 09:34 47.86062 0.91889 38081 ft 454 kts 17°
2026-05-07 09:34 47.92030 0.94901 38081 ft 455 kts 17°
2026-05-07 09:35 47.98036 0.97947 38083 ft 454 kts 17°
2026-05-07 09:35 48.03664 1.00801 38082 ft 454 kts 17°
2026-05-07 09:36 48.09655 1.03844 38087 ft 454 kts 17°
2026-05-07 09:36 48.15640 1.06902 38086 ft 454 kts 17°
2026-05-07 09:37 48.21597 1.09957 38088 ft 454 kts 17°
2026-05-07 09:37 48.27580 1.13008 38088 ft 454 kts 17°
2026-05-07 09:38 48.33577 1.16060 38089 ft 454 kts 17°
2026-05-07 09:38 48.39563 1.19115 38092 ft 454 kts 17°
2026-05-07 09:39 48.45518 1.22179 38092 ft 454 kts 17°
2026-05-07 09:39 48.51502 1.25253 38095 ft 454 kts 17°
2026-05-07 09:40 48.57490 1.28334 38092 ft 454 kts 17°
2026-05-07 09:40 48.63488 1.31361 38096 ft 454 kts 17°
2026-05-07 09:41 48.69449 1.34344 38096 ft 453 kts 17°
2026-05-07 09:41 48.75440 1.37363 38097 ft 453 kts 17°
2026-05-07 09:42 48.81427 1.40403 38100 ft 453 kts 17°
2026-05-07 09:42 48.87423 1.43445 38097 ft 453 kts 17°
2026-05-07 09:43 48.93402 1.46520 38097 ft 453 kts 20°
2026-05-07 09:43 48.98747 1.51247 38099 ft 455 kts 39°
2026-05-07 09:44 49.03148 1.58227 38095 ft 456 kts 47°
2026-05-07 09:44 49.07384 1.65467 38094 ft 456 kts 47°
2026-05-07 09:45 49.11607 1.72697 38093 ft 456 kts 47°
2026-05-07 09:45 49.15806 1.79924 38094 ft 456 kts 47°
2026-05-07 09:46 49.20012 1.87207 38097 ft 456 kts 48°
2026-05-07 09:46 49.24223 1.94505 38096 ft 456 kts 48°
2026-05-07 09:47 49.28395 2.01751 38090 ft 456 kts 48°
2026-05-07 09:47 49.32597 2.09074 38093 ft 456 kts 48°
2026-05-07 09:48 49.36786 2.16395 38096 ft 456 kts 48°
2026-05-07 09:48 49.40971 2.23726 38094 ft 456 kts 48°
2026-05-07 09:49 49.45151 2.31067 38092 ft 456 kts 48°
2026-05-07 09:49 49.49321 2.38421 38094 ft 456 kts 48°
2026-05-07 09:50 49.53460 2.45732 38089 ft 455 kts 47°
2026-05-07 09:50 49.58324 2.51895 38090 ft 453 kts 31°
2026-05-07 09:51 49.62771 2.56183 38089 ft 453 kts 31°
2026-05-07 09:51 49.68120 2.61365 38086 ft 453 kts 31°
2026-05-07 09:52 49.73464 2.66551 38089 ft 453 kts 31°
2026-05-07 09:52 49.78799 2.71742 38296 ft 451 kts 31°
2026-05-07 09:52 49.81451 2.74326 38572 ft 449 kts 31°
2026-05-07 09:53 49.84091 2.76904 38822 ft 448 kts 31°
2026-05-07 09:53 49.86723 2.79477 39008 ft 447 kts 31°
2026-05-07 09:53 49.89339 2.82035 39073 ft 450 kts 31°
2026-05-07 09:54 49.94667 2.87264 39083 ft 454 kts 31°
2026-05-07 09:54 50.00019 2.92532 39084 ft 454 kts 31°
2026-05-07 09:55 50.05362 2.97809 39082 ft 455 kts 32°
2026-05-07 09:55 50.10673 3.03072 39083 ft 454 kts 32°
2026-05-07 09:56 50.16021 3.08377 39084 ft 455 kts 32°
2026-05-07 09:56 50.21366 3.13689 39092 ft 455 kts 32°
2026-05-07 09:57 50.27008 3.18104 39097 ft 453 kts 23°
2026-05-07 09:57 50.32745 3.22121 39095 ft 453 kts 23°
2026-05-07 09:58 50.38515 3.26147 39099 ft 453 kts 23°
2026-05-07 09:58 50.44256 3.30306 39095 ft 454 kts 25°
2026-05-07 09:59 50.49866 3.34755 39097 ft 454 kts 26°
2026-05-07 09:59 50.55524 3.39155 39101 ft 453 kts 24°
2026-05-07 10:00 50.61307 3.43166 39097 ft 453 kts 22°
2026-05-07 10:00 50.67117 3.47093 39099 ft 453 kts 22°
2026-05-07 10:01 50.72903 3.51097 39095 ft 453 kts 23°
2026-05-07 10:01 50.78624 3.55145 39094 ft 453 kts 23°
2026-05-07 10:02 50.84392 3.59247 39092 ft 453 kts 23°
2026-05-07 10:02 50.90157 3.63337 39090 ft 453 kts 23°
2026-05-07 10:03 50.95926 3.67426 39093 ft 453 kts 23°
2026-05-07 10:03 51.01690 3.71517 39091 ft 454 kts 23°
2026-05-07 10:04 51.07422 3.75612 39081 ft 454 kts 24°
2026-05-07 10:04 51.13184 3.79743 39080 ft 454 kts 24°
2026-05-07 10:05 51.18957 3.83885 39085 ft 454 kts 24°
2026-05-07 10:05 51.24725 3.88038 39082 ft 454 kts 24°
2026-05-07 10:06 51.30450 3.92170 39087 ft 454 kts 24°
2026-05-07 10:06 51.36212 3.96350 39088 ft 454 kts 24°
2026-05-07 10:07 51.41971 4.00532 39086 ft 453 kts 24°
2026-05-07 10:07 51.47709 4.04760 39085 ft 454 kts 27°
2026-05-07 10:08 51.53006 4.10182 39086 ft 454 kts 33°
2026-05-07 10:08 51.58280 4.15804 39083 ft 454 kts 33°
2026-05-07 10:09 51.63558 4.21437 39081 ft 455 kts 33°
2026-05-07 10:09 51.68833 4.27086 39083 ft 455 kts 33°
2026-05-07 10:10 51.74087 4.32727 39089 ft 455 kts 33°
2026-05-07 10:10 51.79369 4.38403 39094 ft 456 kts 33°
2026-05-07 10:11 51.84651 4.44106 39094 ft 456 kts 33°
2026-05-07 10:11 51.89931 4.49836 39099 ft 456 kts 33°
2026-05-07 10:12 51.95035 4.55380 39095 ft 456 kts 33°
2026-05-07 10:12 52.00239 4.61056 39094 ft 455 kts 33°
2026-05-07 10:13 52.05506 4.66801 39094 ft 456 kts 33°
2026-05-07 10:13 52.10776 4.72571 39094 ft 456 kts 33°
2026-05-07 10:14 52.16000 4.78316 39095 ft 456 kts 33°
2026-05-07 10:14 52.21257 4.84118 39092 ft 456 kts 33°
2026-05-07 10:15 52.26530 4.89955 39091 ft 456 kts 33°
2026-05-07 10:15 52.31799 4.95789 39095 ft 457 kts 33°
2026-05-07 10:16 52.37061 5.01630 39093 ft 457 kts 34°
2026-05-07 10:16 52.42321 5.07497 39091 ft 457 kts 34°
2026-05-07 10:17 52.47543 5.13349 39091 ft 457 kts 34°
2026-05-07 10:17 52.52801 5.19248 39088 ft 457 kts 34°
2026-05-07 10:18 52.58060 5.25169 39090 ft 457 kts 34°
2026-05-07 10:18 52.63314 5.31087 39085 ft 457 kts 34°
2026-05-07 10:19 52.68570 5.37025 39085 ft 458 kts 34°
2026-05-07 10:19 52.73797 5.42962 39084 ft 458 kts 34°
2026-05-07 10:20 52.79057 5.48946 39083 ft 458 kts 34°
2026-05-07 10:20 52.84319 5.54952 39084 ft 459 kts 34°
2026-05-07 10:21 52.89539 5.60940 39085 ft 459 kts 34°
2026-05-07 10:21 52.94795 5.66979 39089 ft 459 kts 34°
2026-05-07 10:22 53.00048 5.73024 39091 ft 459 kts 34°
2026-05-07 10:22 53.05305 5.79103 39092 ft 459 kts 34°
2026-05-07 10:23 53.10561 5.85194 39096 ft 460 kts 34°
2026-05-07 10:23 53.15781 5.91249 39098 ft 460 kts 34°
2026-05-07 10:24 53.21032 5.97369 39096 ft 460 kts 34°
2026-05-07 10:24 53.26275 6.03509 39091 ft 459 kts 34°
2026-05-07 10:25 53.31516 6.09666 39088 ft 460 kts 34°
2026-05-07 10:25 53.36740 6.15803 39084 ft 460 kts 34°
2026-05-07 10:26 53.41978 6.21983 39086 ft 459 kts 34°
2026-05-07 10:26 53.47203 6.28181 39083 ft 459 kts 34°
2026-05-07 10:27 53.51546 6.33345 39083 ft 460 kts 34°
2026-05-07 10:27 53.56777 6.39568 39085 ft 460 kts 34°
2026-05-07 10:28 53.62012 6.45807 39087 ft 460 kts 34°
2026-05-07 10:28 53.67211 6.52038 39091 ft 460 kts 35°
2026-05-07 10:29 53.72436 6.58321 39093 ft 461 kts 35°
2026-05-07 10:29 53.77658 6.64620 39093 ft 461 kts 35°
2026-05-07 10:30 53.85466 6.74065 39100 ft 461 kts 35°
2026-05-07 10:30 53.90693 6.80414 39097 ft 461 kts 35°
2026-05-07 10:31 53.95912 6.86779 39100 ft 461 kts 35°
2026-05-07 10:31 54.01108 6.93132 39101 ft 462 kts 35°
2026-05-07 10:32 54.06326 6.99543 39105 ft 462 kts 35°
2026-05-07 10:32 54.11553 7.05976 39103 ft 462 kts 35°
2026-05-07 10:33 54.16738 7.12364 39104 ft 463 kts 35°
2026-05-07 10:33 54.21958 7.18830 39106 ft 463 kts 35°
2026-05-07 10:34 54.27175 7.25303 39108 ft 463 kts 35°
2026-05-07 10:34 54.32396 7.31815 39113 ft 464 kts 35°
2026-05-07 10:35 54.37615 7.38354 39114 ft 464 kts 35°
2026-05-07 10:35 54.42803 7.44862 39114 ft 464 kts 35°
2026-05-07 10:36 54.48030 7.51432 39116 ft 464 kts 35°
2026-05-07 10:36 54.53254 7.58025 39115 ft 465 kts 35°
2026-05-07 10:37 54.58451 7.64604 39118 ft 465 kts 36°
2026-05-07 10:37 54.63659 7.71229 39116 ft 465 kts 36°